Location: Boncourt
(49.6160°N, 3.9448°E)
Time: 19:07:06
(UTC+00:00)

Iridium 2 - Pass Details

Date: 09 February 2023
Orbit: 469 x 478 km, 85.5° (Epoch: 25 March)

Event Time Altitude Azimuth Distance (km) Brightness Sun altitude
Rises 18:40:43 0° 353° (N) 2,548 7.3 -17.9°
Reaches altitude 10° 18:42:48 10° 352° (N) 1,668 6.4 -18.2°
Maximum altitude 18:46:26 76° 267° (W) 505 3.7 -18.8°
Drops below altitude 10° 18:50:04 10° 182° (S) 1,669 6.3 -19.4°
Sets 18:52:09 0° 180° (S) 2,549 7.2 -19.7°
